Location: Chimay
(50.0486°N, 4.3171°E)
Time: 16:35:22
(UTC+00:00)

Cosmos 1238 Rocket - Pass Details

Date: 08 August 2020
Orbit: 375 x 1027 km, 82.9° (Epoch: 19 September)

Event Time Altitude Azimuth Distance (km) Brightness Sun altitude
Exits shadow 20:29:03 15° 105° (ESE) 1,140 3.9 -10.9°
Maximum altitude 20:29:41 16° 89° (E) 1,096 3.9 -11.0°
Drops below altitude 10° 20:31:39 10° 47° (NE) 1,401 4.9 -11.2°
Sets 20:34:05 0° 25° (NNE) 2,260 6.2 -11.5°
